GFSMW_prec_cloud_132.txt.gz
Cloud_Cover
31 0 6 97 4 0 0 100 100 52 75 58 0 26 18 100 50 100 100 100 100 100 100 100 100 100 100 100 54 100 100 100 100 100 100 100 97 44 45 7 96 100 16
64 0 100 0 0 0 0 100 88 71 16 44 27 63 66 8 99 80 100 100 100 100 100 100 100 100 100 100 100 100 100 100 100 100 100 100 100 100 100 100 92 56 12
95 2 4 60 12 0 1 91 21 42 2 13 99 98 7 95 16 84 100 93 100 100 100 100 100 100 100 100 100 100 100 100 100 100 100 100 100 100 100 100 100 61 41
84 5 5 18 30 3 0 0 0 0 0 12 7 17 73 34 34 54 87 41 1 6 88 100 100 100 100 100 81 63 100 100 100 100 77 89 100 100 100 100 16 24 100
98 100 100 86 78 100 52 3 0 0 0 0 0 0 6 29 5 37 0 0 0 0 5 100 100 85 85 34 0 1 96 100 100 92 23 56 100 100 13 50 100 100 90
65 27 97 16 86 55 83 99 11 2 0 0 0 21 100 89 8 71 8 0 0 0 0 7 0 3 5 4 0 0 0 0 3 0 0 0 0 0 18 20 0 56 98
100 100 11 5 5 9 5 46 18 2 0 0 0 0 0 6 19 6 17 19 39 98 100 41 0 0 0 0 0 0 1 1 4 0 0 0 0 0 24 0 0 0 72
5 45 4 5 10 5 5 5 5 5 5 4 0 0 0 0 0 0 0 0 83 89 3 28 10 0 0 0 5 5 5 39 69 57 0 0 0 0 42 84 0 0 5
100 100 100 1 1 5 5 0 0 2 1 4 5 4 1 0 0 0 0 3 44 77 100 5 6 5 0 18 0 14 0 6 2 0 0 0 0 0 0 50 44 45 20
96 77 100 39 5 4 4 0 0 0 2 4 0 5 1 4 5 2 11 85 50 95 100 11 30 54 2 0 0 4 3 0 0 5 12 32 33 9 5 36 68 75 49
100 92 94 99 3 0 0 0 0 0 0 5 1 0 2 0 5 30 48 28 100 99 3 2 2 4 4 5 4 4 7 5 16 3 21 50 80 32 18 9 100 100 100
98 100 80 100 80 0 0 82 0 0 0 11 5 0 0 0 1 4 5 5 4 8 0 0 0 0 4 75 8 1 64 6 31 55 14 6 99 99 100 99 100 100 100
86 78 100 98 100 52 4 9 67 0 0 0 0 0 0 3 22 100 34 5 34 5 0 16 5 5 5 38 100 69 5 57 24 29 13 7 56 100 100 100 100 100 100
100 100 100 73 100 52 77 24 100 100 21 8 0 0 0 0 0 67 80 53 8 2 0 1 89 64 15 4 6 43 90 48 5 31 100 88 100 100 100 100 100 100 100
100 100 100 100 72 100 80 4 15 50 100 77 33 0 0 0 1 4 61 100 100 100 88 29 9 3 26 86 98 8 10 66 44 26 100 97 96 13 14 27 33 100 53
100 100 100 100 100 100 95 5 5 81 39 0 60 100 100 5 5 24 31 5 36 90 100 100 100 87 1 3 5 1 3 58 99 46 21 34 5 35 28 5 5 22 86
100 100 100 100 100 100 100 100 26 41 5 2 2 6 0 1 5 43 90 5 14 5 5 18 31 24 38 64 93 44 24 54 6 73 100 36 6 5 30 42 28 42 51
100 100 100 100 100 100 100 97 100 100 82 12 26 95 82 10 4 8 16 9 7 5 68 5 49 41 40 100 100 53 100 92 96 99 95 100 85 94 93 95 11 19 56
100 100 100 100 100 100 100 100 100 100 100 100 100 90 57 83 80 86 30 26 22 17 95 38 6 38 92 61 56 47 96 100 100 96 100 100 100 100 100 100 100 99 99
100 100 100 100 100 100 100 100 100 100 100 100 100 100 100 28 89 100 100 100 52 40 60 100 100 100 100 100 100 63 93 96 100 100 90 100 87 100 100 100 100 100 100
100 100 100 100 100 100 90 97 100 98 100 98 46 50 80 100 100 100 98 100 95 99 100 100 100 100 100 100 92 100 100 100 100 100 100 100 100 100 100 100 100 100 100
100 100 100 100 100 100 100 100 100 100 100 100 100 100 98 100 92 99 100 100 100 100 100 100 100 100 69 89 99 99 100 100 96 100 100 100 100 100 100 100 100 100 100
100 100 100 100 100 100 100 100 100 100 100 100 99 100 100 100 100 99 100 100 99 100 71 94 100 100 88 80 100 77 80 64 74 95 100 100 100 100 100 100 100 100 100
100 100 100 100 100 100 100 100 100 100 100 99 99 100 100 99 80 100 100 100 98 100 90 88 72 31 68 83 69 55 94 74 94 100 100 100 100 92 100 100 100 100 100
95 99 100 100 100 100 100 100 100 100 99 100 100 100 100 100 100 100 92 94 95 99 99 94 100 78 84 80 96 100 99 78 58 88 98 99 97 100 100 100 100 100 100
91 90 100 100 100 100 100 100 100 100 100 100 100 100 100 100 100 100 100 89 85 98 96 100 93 100 85 65 99 100 99 98 88 100 100 100 100 100 100 100 100 100 100

GFSMW_prec_cloud_135.txt.gz
Cloud_Cover
11 12 0 0 88 35 0 0 50 54 0 82 74 71 62 100 100 100 100 100 100 100 100 100 100 100 100 100 100 100 100 100 98 74 100 100 100 100 100 100 5 78 100
70 0 0 0 0 0 4 2 100 38 96 91 19 4 5 30 41 83 100 100 100 100 100 100 100 100 100 100 100 100 100 100 100 95 100 100 100 100 100 100 100 44 100
93 2 0 0 0 0 0 0 20 100 33 4 0 15 0 5 6 78 100 28 100 100 100 100 100 100 100 100 100 100 100 95 100 100 100 100 100 100 100 100 47 41 97
1 81 0 0 0 0 0 0 0 0 0 24 27 1 79 42 10 100 100 100 100 100 100 100 100 100 100 100 100 100 92 99 100 100 100 100 100 100 31 68 46 98 20
67 94 48 17 28 2 0 0 0 0 0 7 5 1 5 73 98 100 100 100 100 100 100 100 100 100 100 100 100 89 97 100 100 100 100 100 100 87 65 74 18 4 22
96 29 99 63 98 98 81 0 0 0 10 20 32 5 5 0 1 100 100 100 100 100 100 100 79 10 100 100 100 100 98 86 80 81 10 9 3 8 30 57 57 75 39
4 4 56 10 7 99 46 8 0 0 11 82 100 2 0 0 0 24 18 94 100 34 100 95 5 0 2 7 98 62 1 0 0 0 0 0 5 8 3 75 7 65 97
13 4 96 70 3 48 11 37 2 0 0 4 35 0 0 0 0 0 0 2 7 10 32 11 0 0 0 0 0 0 0 0 3 83 3 0 0 1 5 11 46 85 9
100 25 40 100 0 9 22 5 5 5 57 0 0 0 0 0 0 0 0 0 0 0 3 4 4 0 0 0 0 0 0 0 1 5 5 33 5 14 100 100 71 13 6
100 74 80 32 42 18 1 1 3 0 3 26 0 0 0 0 0 0 0 28 25 91 100 87 5 0 1 1 2 0 1 0 4 5 5 6 24 91 87 100 100 100 100
98 100 72 100 100 98 0 0 0 0 0 0 0 0 0 3 3 12 72 30 66 100 100 5 5 5 2 0 1 1 1 5 4 4 5 5 4 77 100 83 100 100 100
100 49 99 6 79 78 2 4 2 5 5 0 1 5 1 0 2 7 42 100 79 64 12 5 5 3 5 0 5 22 5 5 10 5 73 63 99 96 99 100 100 100 100
100 99 100 21 93 100 98 3 0 4 5 5 3 4 5 5 2 2 0 84 100 100 13 69 69 5 6 89 90 89 19 100 99 100 100 100 100 100 100 100 90 100 100
100 100 100 43 100 6 11 100 14 1 4 0 0 0 0 0 0 0 0 16 30 20 48 60 10 55 5 65 100 100 99 55 90 55 100 100 100 100 100 97 100 100 99
87 95 100 96 96 80 70 100 58 0 42 74 8 0 0 0 4 5 5 3 0 5 5 5 9 39 24 37 44 7 2 10 83 99 97 43 99 100 100 100 99 100 60
100 100 100 100 100 98 70 62 97 100 100 100 100 25 0 0 4 5 5 5 3 61 32 5 5 9 6 37 45 14 100 61 98 100 20 16 78 100 96 100 100 49 6
100 100 100 100 100 100 100 100 100 100 100 100 100 90 62 33 0 0 0 5 7 38 58 100 100 100 100 100 47 5 4 5 4 5 5 65 75 28 69 26 39 100 99
100 100 100 100 100 100 100 100 100 100 100 100 100 100 5 3 6 4 12 5 74 100 100 100 92 94 100 100 100 100 100 99 100 53 5 25 24 67 100 100 100 100 100
100 100 100 100 100 100 100 100 100 100 100 94 100 71 69 40 17 12 5 78 100 100 100 100 96 100 100 100 85 100 100 100 100 67 34 80 91 100 100 100 100 100 100
100 100 100 100 100 100 100 100 100 100 100 93 100 100 100 67 24 91 31 79 100 100 100 100 100 100 80 82 73 99 100 100 100 91 51 39 54 96 87 100 100 100 100
98 100 100 100 100 100 100 100 100 100 100 100 100 100 100 100 100 100 100 77 88 99 100 100 100 98 86 91 71 78 72 90 99 100 100 100 100 100 93 87 100 100 100
99 99 100 100 100 100 100 100 100 100 100 100 100 100 100 100 100 100 87 98 94 100 100 100 100 92 97 93 95 79 57 52 76 99 74 71 65 94 100 100 100 100 100
92 63 100 100 100 100 100 100 100 100 100 100 100 100 93 96 92 83 100 85 92 64 92 94 100 100 100 100 100 74 57 93 58 99 100 97 67 56 40 48 98 100 100
100 100 100 100 100 97 100 100 100 100 100 100 100 100 100 100 100 100 100 100 93 88 81 86 39 43 60 85 94 100 100 95 100 100 99 88 66 65 92 55 24 23 40
100 100 100 98 99 97 100 100 100 100 100 100 100 100 100 100 100 99 94 95 98 100 97 100 100 100 78 52 100 80 26 45 40 39 22 54 88 93 88 95 84 95 100
100 99 100 100 77 100 100 100 100 100 100 100 100 100 100 100 100 100 100 90 84 100 98 93 56 70 97 89 36 12 24 24 7 22 11 13 16 19 68 75 97 96 88

GFSMW_prec_cloud_138.txt.gz
Cloud_Cover
1 43 51 0 2 5 7 0 0 0 4 1 8 100 52 13 5 100 97 100 100 86 100 100 100 100 100 5 21 96 82 100 100 100 100 100 100 100 100 100 100 100 100
12 0 0 0 0 78 3 29 12 7 0 17 5 8 5 92 74 28 100 100 64 100 100 100 100 100 85 77 88 100 99 100 100 100 100 100 100 100 100 100 93 52 38
79 6 31 0 0 0 0 3 4 16 8 6 7 81 99 99 99 70 60 100 75 100 100 100 100 100 100 100 99 100 81 96 76 100 98 100 90 92 100 89 96 12 100
4 80 5 0 0 0 0 4 2 99 53 95 54 85 100 83 100 99 100 84 84 86 100 100 100 100 100 100 100 97 64 20 10 80 95 97 51 86 100 99 100 99 23
0 40 55 45 5 0 0 9 61 83 98 100 100 70 89 100 100 100 100 61 100 82 87 100 96 100 100 100 97 5 86 5 21 98 94 76 58 14 30 5 64 15 75
18 82 100 100 100 42 1 33 5 48 78 100 22 62 5 100 98 99 100 100 100 80 79 100 100 100 100 32 63 21 15 21 88 23 33 16 8 4 27 95 11 64 84
44 83 20 100 97 98 1 5 0 7 5 21 10 19 100 100 100 100 100 100 100 91 93 100 100 100 99 90 71 69 41 16 2 5 0 2 5 19 12 7 32 98 57
100 5 5 98 83 36 1 0 5 79 13 4 4 1 5 96 100 100 100 100 100 12 0 2 100 100 98 0 0 0 0 0 0 2 0 0 6 90 100 34 32 55 12
5 7 35 5 81 41 5 5 75 4 0 1 0 0 4 7 7 64 80 0 1 5 5 2 0 2 0 0 0 2 3 5 5 5 5 89 100 100 100 100 100 100 94
37 5 5 5 32 100 34 21 5 19 4 0 0 0 2 0 0 1 0 0 25 11 27 4 5 0 0 0 0 0 1 4 8 11 4 5 12 31 53 87 100 100 100
100 74 5 100 91 48 99 92 18 5 3 1 5 30 0 0 0 0 5 5 65 24 37 8 3 1 0 4 4 3 1 0 17 59 14 13 39 94 98 78 100 100 100
99 42 42 100 6 57 91 100 40 2 0 0 2 7 95 1 10 5 5 43 94 43 5 5 5 5 4 0 5 5 8 5 0 5 5 29 35 66 68 76 99 100 100
100 100 100 40 72 58 92 5 56 100 5 0 4 5 5 5 5 35 63 76 81 64 7 5 5 5 5 4 5 9 5 5 5 7 12 86 10 18 100 99 28 9 95
100 100 84 99 100 54 9 18 39 100 0 0 0 4 14 58 32 7 5 5 99 56 78 5 5 5 4 5 5 84 38 9 49 9 5 5 7 42 90 100 91 61 100
100 100 100 100 100 90 34 40 47 65 22 4 4 5 5 11 5 6 5 31 100 82 68 5 5 6 5 4 5 4 1 2 5 0 2 5 5 5 26 38 98 100 100
89 100 100 100 100 100 100 100 100 75 61 84 21 39 8 5 5 5 7 52 5 5 47 7 51 5 5 48 85 61 10 16 15 0 9 35 32 18 99 35 100 100 100
98 95 100 100 100 100 100 100 100 74 80 100 79 63 73 76 58 68 3 5 9 5 5 3 13 90 5 16 27 26 5 6 4 5 8 5 5 5 29 35 97 97 100
96 100 97 89 100 100 93 100 100 100 100 100 100 84 100 100 100 100 100 51 20 5 5 32 71 100 100 97 100 100 98 82 71 21 8 84 98 100 93 76 100 100 100
86 94 100 100 76 28 98 91 100 100 100 100 100 100 100 100 100 100 100 100 100 98 100 100 100 100 100 100 100 100 100 100 100 95 44 87 98 100 100 100 100 98 100
97 100 99 90 93 100 65 74 100 100 100 100 100 100 100 100 100 100 100 100 100 100 100 100 100 100 100 100 100 100 100 100 100 100 100 100 100 100 100 100 100 100 100
100 88 99 100 100 100 88 100 100 100 100 100 100 100 100 100 100 100 100 100 100 100 100 100 100 100 100 100 100 100 100 100 100 100 100 100 100 100 100 97 100 100 100
78 100 89 100 100 100 100 100 100 100 100 100 100 100 100 100 100 100 100 100 100 100 100 100 100 100 100 100 100 100 100 100 100 100 100 100 100 100 100 98 55 82 100
100 100 100 100 100 100 100 100 100 100 100 100 100 100 100 100 100 100 100 100 100 100 100 100 100 100 100 100 100 100 100 99 90 100 100 95 89 86 40 24 6 40 98
92 100 100 100 100 100 100 100 100 100 100 100 100 100 100 100 93 100 100 100 100 100 100 100 100 100 100 100 99 38 28 91 100 100 91 95 100 100 99 90 16 68 11
88 98 100 100 100 100 100 100 100 100 100 100 100 100 100 100 100 100 100 100 100 100 100 100 100 100 89 97 100 93 100 98 74 58 47 63 98 100 86 96 78 50 31
50 100 100 100 100 100 100 100 100 100 100 100 100 100 100 100 100 100 100 100 100 100 100 100 100 100 100 99 90 100 79 99 99 82 67 71 90 60 57 99 81 87 48

GFSMW_prec_cloud_141.txt.gz
Cloud_Cover
23 3 4 5 1 4 95 22 0 0 1 5 18 100 100 75 90 100 100 84 88 83 5 10 5 19 100 100 100 100 84 89 79 100 100 100 100 43 100 99 42 96 5
90 2 1 0 0 4 86 66 0 0 1 0 87 13 5 8 66 100 100 100 100 94 5 46 98 100 96 100 100 91 98 85 100 100 100 100 83 88 32 10 31 5 2
5 1 0 0 0 2 10 93 1 2 5 4 1 5 5 7 45 67 97 100 100 100 55 18 99 10 21 34 78 71 97 95 89 100 38 8 62 35 5 15 16 5 2
5 5 4 8 0 0 0 4 0 4 6 5 30 14 5 16 10 35 88 100 100 100 67 99 99 62 93 100 98 100 100 100 98 100 44 5 5 49 57 5 4 2 0
44 9 6 0 2 0 0 0 5 5 5 10 100 67 6 13 67 51 94 83 100 100 100 99 100 52 100 97 60 99 40 87 98 97 38 5 6 5 5 32 65 5 5
17 82 5 25 34 0 1 0 2 5 5 6 53 97 94 21 8 93 34 79 68 67 92 61 41 98 100 100 9 75 100 86 62 86 5 5 5 5 19 15 5 0 5
6 5 40 6 52 0 4 16 6 23 42 25 4 3 5 3 0 5 89 100 88 95 93 22 6 5 90 87 100 100 37 4 27 3 5 5 16 33 12 5 3 5 5
73 17 8 25 37 3 4 25 5 66 92 0 0 0 0 4 5 5 8 7 49 5 1 5 8 39 96 100 63 84 2 5 0 2 5 9 91 100 99 13 15 5 8
71 7 37 5 5 5 16 17 33 5 3 0 0 0 0 32 57 56 21 38 14 7 5 5 4 5 0 0 0 13 5 5 3 13 78 100 100 100 100 5 6 5 7
100 91 100 12 5 21 3 6 12 96 8 0 0 0 3 7 16 22 37 3 0 0 1 4 5 5 0 0 1 4 5 5 5 5 19 99 98 37 98 100 100 98 38
100 41 5 5 5 17 26 5 10 38 5 3 0 0 3 0 0 0 0 0 0 4 5 58 5 3 0 0 0 0 0 5 40 55 100 60 63 100 95 100 100 100 98
100 92 5 5 34 1 25 5 22 96 2 0 0 0 0 0 0 0 0 4 5 28 5 5 5 5 0 0 0 0 0 3 11 44 14 100 100 100 99 97 100 100 98
100 84 28 5 6 9 100 27 46 100 3 44 0 1 5 5 4 3 1 5 9 86 5 5 30 4 1 4 5 71 5 9 13 52 77 100 100 100 99 100 100 94 61
98 99 100 65 90 77 100 49 68 38 67 18 0 0 0 0 0 5 5 17 21 5 16 42 31 17 6 11 5 6 24 100 60 11 55 56 67 53 55 34 62 38 82
100 100 98 100 95 100 74 28 87 88 15 100 48 5 5 5 6 78 38 81 82 84 99 92 100 80 49 17 5 8 5 14 6 8 23 6 75 92 58 34 5 5 6
100 100 100 100 100 100 51 100 100 96 59 93 25 3 0 3 5 5 15 90 100 100 84 86 97 100 44 47 67 49 5 6 5 5 5 7 7 38 99 100 40 56 10
100 100 99 100 100 100 100 52 100 96 98 100 100 100 98 41 6 5 7 5 7 52 38 35 13 49 44 92 100 92 6 29 6 5 36 11 9 20 23 62 94 26 64
100 100 98 100 100 100 100 100 100 97 100 100 100 100 100 100 95 100 66 79 45 22 30 42 66 100 100 100 84 62 41 95 49 10 42 49 24 57 35 64 77 78 98
100 100 100 97 100 100 100 97 100 98 100 100 100 100 100 100 100 100 100 100 100 100 100 100 100 100 100 94 80 100 86 100 100 88 99 100 100 100 100 99 100 100 100
100 100 100 100 100 100 100 82 97 94 96 100 100 100 100 100 100 100 100 100 100 100 100 100 100 100 100 100 100 95 100 75 83 100 100 100 100 100 100 100 100 100 100
100 100 100 100 100 100 100 100 100 98 100 100 100 100 100 100 100 100 100 100 100 100 100 100 100 100 98 100 100 100 100 100 96 100 100 100 100 100 100 100 100 100 100
100 100 100 100 100 100 100 100 100 100 100 100 96 100 100 100 100 100 100 100 100 100 100 100 100 100 100 100 100 100 100 100 100 100 100 100 100 100 100 100 100 87 93
100 100 100 100 100 100 100 100 100 100 100 100 100 100 100 100 100 100 100 100 100 100 100 100 100 100 100 100 100 100 100 100 97 100 100 100 100 100 100 100 100 100 100
100 100 100 100 100 100 100 100 100 100 100 100 100 100 100 100 100 100 100 100 100 100 100 100 100 100 100 100 100 100 100 100 91 80 96 99 100 100 93 58 96 45 23
100 100 100 100 100 100 100 100 100 100 100 100 100 100 100 100 100 100 100 100 100 100 100 100 100 100 100 100 100 100 100 100 100 100 100 100 100 100 100 100 98 59 94
100 100 100 100 100 100 100 100 100 100 100 100 100 100 100 100 100 100 100 100 100 100 100 100 100 100 100 100 100 100 100 98 100 100 75 87 98 73 94 47 66 76 17

GFSMW_prec_cloud_147.txt.gz
Cloud_Cover
5 10 1 0 0 3 0 0 3 45 90 28 62 100 1 0 0 0 1 0 90 100 68 0 10 56 97 10 5 71 17 5 38 79 69 98 68 47 5 5 5 4 5
5 3 1 0 3 5 4 0 2 60 48 74 100 100 54 100 100 100 100 100 100 47 3 34 4 5 5 7 5 4 20 56 23 28 79 36 5 5 5 5 5 0 3
12 3 5 5 7 9 10 0 3 100 63 5 71 100 31 6 73 100 99 14 4 3 9 2 1 4 3 5 5 5 5 5 4 5 5 5 5 5 5 5 0 2 5
5 0 74 5 0 0 5 0 30 100 6 5 6 32 20 5 15 5 6 5 5 9 9 6 5 5 5 5 5 5 1 5 0 5 5 5 5 5 3 0 0 3 16
34 27 32 5 0 0 0 0 86 25 7 4 1 4 2 2 5 4 5 1 5 2 5 17 5 0 0 5 0 0 0 5 0 5 5 5 5 24 92 100 84 70 38
24 100 74 2 0 0 0 4 5 24 4 2 0 4 2 5 3 5 1 0 0 4 5 7 5 4 5 0 1 1 1 2 4 4 0 5 5 5 5 5 5 16 92
43 42 3 0 0 0 0 0 0 4 5 0 0 2 2 4 42 76 43 4 4 5 37 46 5 9 2 0 5 4 5 3 0 0 5 5 2 3 0 0 0 4 58
5 30 5 1 0 0 0 4 0 3 34 14 5 1 33 5 9 68 100 48 81 13 11 5 4 4 0 0 4 3 0 0 0 2 1 3 0 4 5 5 67 55 61
13 55 57 5 4 0 0 0 5 64 47 96 5 5 16 4 5 35 24 60 5 5 0 2 5 5 3 1 0 4 0 5 6 6 5 5 4 5 5 4 37 92 100
15 7 47 4 5 0 2 5 5 20 90 97 2 5 5 1 42 27 4 5 5 4 4 5 4 5 2 0 1 2 7 10 4 5 25 5 4 5 49 8 7 5 48
70 6 22 95 11 26 30 5 5 48 76 26 5 0 5 5 32 4 5 46 13 4 5 1 1 4 0 0 0 1 4 7 7 5 11 5 5 31 40 47 6 93 100
5 98 8 27 30 74 91 5 6 59 37 5 0 1 3 0 1 0 5 5 5 2 0 0 0 0 5 0 0 2 0 1 2 5 5 4 11 91 5 10 62 100 100
7 99 53 22 71 100 31 19 5 48 6 4 4 1 4 0 0 4 5 2 1 0 0 0 0 0 0 2 3 12 0 0 6 4 5 5 5 35 95 34 9 5 5
5 95 100 96 77 100 100 100 16 76 42 2 2 0 2 0 0 4 1 0 0 0 0 5 4 0 0 0 5 1 2 5 5 0 1 2 6 5 5 5 5 5 5
7 42 58 100 100 80 88 100 10 59 98 7 5 5 1 0 0 0 2 0 5 8 0 25 5 5 10 5 2 6 5 5 5 12 12 5 61 86 68 19 34 77 10
10 46 64 92 100 100 70 49 90 63 42 5 19 4 5 5 5 1 23 0 4 1 5 0 5 18 6 9 40 98 100 100 28 7 5 5 38 55 100 100 100 72 27
0 26 30 50 96 100 100 70 55 58 72 71 62 89 73 58 43 18 12 5 3 4 5 9 65 65 92 100 100 100 100 96 99 96 84 38 11 10 7 76 61 91 70
0 0 54 21 78 100 99 99 60 50 38 38 40 86 55 65 83 86 48 52 29 27 15 9 31 34 97 99 100 100 53 66 88 100 65 75 42 15 61 100 100 100 100
0 0 22 37 81 99 100 98 99 100 100 68 30 88 100 70 75 76 64 43 33 91 93 72 94 100 100 100 100 100 100 100 97 100 45 27 27 49 23 97 100 96 75
0 2 29 83 41 56 100 100 100 94 100 100 98 100 100 61 51 81 100 100 100 100 100 100 100 100 100 100 100 100 98 89 100 100 98 100 96 81 98 74 76 100 100
0 5 8 94 100 75 88 100 100 100 83 100 99 100 100 94 98 93 86 100 100 100 100 100 100 100 100 100 100 100 100 100 100 100 100 100 100 100 85 78 86 100 100
0 0 0 98 100 77 100 100 99 99 99 100 100 100 100 91 94 99 100 100 100 100 100 100 100 100 100 100 100 100 99 100 100 100 90 83 81 76 95 99 91 82 100
0 0 0 15 100 100 100 100 100 100 100 100 100 100 90 100 100 100 100 100 100 100 100 100 100 100 100 100 100 100 100 100 100 100 100 100 98 100 91 99 100 92 100
0 0 0 9 100 100 96 100 100 100 100 100 100 100 100 100 100 100 100 100 100 100 100 100 100 100 100 100 100 100 100 100 100 100 100 100 100 100 95 59 89 74 52
9 0 0 0 37 100 100 100 100 100 100 100 100 100 100 100 100 100 100 100 100 100 100 100 100 100 100 100 100 100 100 100 100 100 100 100 100 100 100 99 98 57 64
0 1 0 0 3 66 100 99 100 100 100 100 100 100 100 100 100 100 100 100 100 100 100 100 100 100 100 100 100 100 100 100 100 100 100 100 100 100 100 100 100 99 100